Project,Study,Ord_Occ,Event_Num,Cast_ID,Date_Time_UTC,Date_Time_PST,Lat_Dec,Lon_Dec,Sta_ID,Line,Sta,Depth,Pressure,PrQ,Temp1,Temp1Q,Temp2,Temp2Q,TempAve,Salt1,Salt1Q,Salt1_Corr,Salt2,Salt2Q,Salt2_Corr,SaltAve_Corr,Ox1,Ox1Q,Ox1_CruiseCorr,Ox1_StaCorr,Ox2,Ox2Q,Ox2_CruiseCorr,Ox2_StaCorr,OxAve_StaCorr,Ox1uM,Ox1uM_CruiseCorr,Ox1uM_StaCorr,Ox2uM,Ox2uM_CruiseCorr,Ox2uM_StaCorr,OxAveuM_StaCorr,FluorV,FluorQ,EstChl_CruiseCorr,EstChl_StaCorr,ISUSV,ISUSQ,EstNO3_CruiseCorr,EstNO3_StaCorr,SigThetaTS1,SigThetaTS1Q,SigThetaTS2,SigThetaTS2Q,BAT,XMiss,TransQ,pH,pHQ,SPAR,SPARQ,PAR,PARQ,PoT1,PoT2,DynHt,SVA,OxSat1,OxSat2,BTL_Depth,BTL_Temp,SaltB,OxB,OxBuM,Chl-a,Phaeo,NO3,NO2,NH4,PO4,SIL
CalCOFI,2101RL,038,,2101_038u,24-Jan-2021 02:54:10,23-Jan-2021 18:54:10,33.31950,-119.66270,086.7 050.0,086.7,050.0,62.000,62.452,,10.9487,,10.9480,,10.9484,33.6306,,33.6364,33.6278,,33.6298,33.6331,3.7379,,3.9120,3.9085,3.6701,,3.8960,3.8899,3.8992,162.748,170.6248,179.3062,159.798,181.4307,180.9003,180.1033,0.0416,,0.0927,0.1335, ,, , ,25.7197,,25.7176,,0.7424,83.0613,,,,3.6947E+00,,1.0000E-12,,10.9411,10.9404,0.1733,227.780,59.888,58.801,,,,,,,,,,,,
CalCOFI,2101RL,038,,2101_038u,24-Jan-2021 02:54:12,23-Jan-2021 18:54:12,33.31949,-119.66269,086.7 050.0,086.7,050.0,61.000,61.444,,10.9509,,10.9515,,10.9512,33.6288,,33.6346,33.6257,,33.6277,33.6312,3.7219,,3.8952,3.8917,3.6881,,3.9151,3.9090,3.9004,162.052,169.8962,179.1750,160.582,180.6568,181.0306,180.1028,0.0406,,0.0845,0.1265, ,, , ,25.7179,,25.7154,,0.7417,83.0763,,,,3.6947E+00,,1.0000E-12,,10.9435,10.9441,0.1733,227.931,59.634,59.093,,,,,,,,,,,,
CalCOFI,2101RL,038,,2101_038u,24-Jan-2021 02:54:15,23-Jan-2021 18:54:15,33.31948,-119.66268,086.7 050.0,086.7,050.0,60.000,60.437,,10.9518,,10.9531,,10.9525,33.6285,,33.6343,33.6251,,33.6271,33.6307,3.7257,,3.8992,3.8957,3.6831,,3.9098,3.9037,3.8997,162.217,170.0690,179.2061,160.366,180.8403,180.9947,180.1004,0.0419,,0.0951,0.1357, ,, , ,25.7175,,25.7145,,0.7421,83.0679,,,,3.4085E+00,,1.0000E-12,,10.9445,10.9458,0.1733,227.945,59.696,59.015,,,,,,,,,,,,
CalCOFI,2101RL,038,,2101_038u,24-Jan-2021 02:54:17,23-Jan-2021 18:54:17,33.31948,-119.66270,086.7 050.0,086.7,050.0,59.000,59.429,,10.9515,,10.9526,,10.9521,33.6278,,33.6336,33.6228,,33.6248,33.6292,3.7931,,3.9698,3.9663,3.7132,,3.9418,3.9357,3.9510,165.153,173.1424,179.7596,161.673,184.1051,181.2120,180.4858,0.0422,,0.0976,0.1378, ,, , ,25.7169,,25.7129,,0.7407,83.0949,,,,3.7075E+00,,1.0000E-12,,10.9444,10.9454,0.1733,227.975,60.776,59.494,,,,,,,,,,,,
CalCOFI,2101RL,038,,2101_038u,24-Jan-2021 02:54:19,23-Jan-2021 18:54:19,33.31948,-119.66270,086.7 050.0,086.7,050.0,58.000,58.422,,10.9606,,10.9605,,10.9606,33.6165,,33.6223,33.6134,,33.6154,33.6189,3.8295,,4.0079,4.0044,3.7573,,3.9886,3.9824,3.9934,166.737,174.8005,180.0581,163.596,185.8666,181.5316,180.7949,0.0405,,0.0837,0.1258, ,, , ,25.7065,,25.7041,,0.7383,83.1469,,,,3.6947E+00,,1.0000E-12,,10.9536,10.9535,0.1733,228.945,61.366,60.208,,,,,,,,,,,,
CalCOFI,2101RL,038,,2101_038u,24-Jan-2021 02:54:20,23-Jan-2021 18:54:20,33.31948,-119.66270,086.7 050.0,086.7,050.0,57.000,57.414,,10.9743,,10.9735,,10.9739,33.6083,,33.6141,33.6072,,33.6092,33.6117,3.8416,,4.0205,4.0170,3.7829,,4.0158,4.0096,4.0133,167.269,175.3574,180.1584,164.712,186.4582,181.7171,180.9378,0.0394,,0.0746,0.1180, ,, , ,25.6977,,25.6969,,0.7376,83.1596,,,,3.6947E+00,,1.0000E-12,,10.9674,10.9666,0.1733,229.757,61.575,60.633,,,,,,,,,,,,
CalCOFI,2101RL,038,,2101_038u,24-Jan-2021 02:54:21,23-Jan-2021 18:54:21,33.31948,-119.66270,086.7 050.0,086.7,050.0,56.000,56.407,,10.9871,,10.9944,,10.9908,33.6048,,33.6106,33.5998,,33.6018,33.6062,3.8458,,4.0249,4.0214,3.7875,,4.0207,4.0145,4.0180,167.449,175.5458,180.1923,164.913,186.6583,181.7505,180.9714,0.0402,,0.0812,0.1236, ,, , ,25.6926,,25.6874,,0.7371,83.1701,,,,3.6947E+00,,1.0000E-12,,10.9803,10.9876,0.1733,230.215,61.657,60.730,,,,,,,,,,,,
CalCOFI,2101RL,038,,2101_038u,24-Jan-2021 02:54:22,23-Jan-2021 18:54:22,33.31948,-119.66270,086.7 050.0,086.7,050.0,55.000,55.399,,11.0029,,11.0099,,11.0064,33.6014,,33.6072,33.5978,,33.5998,33.6035,3.8504,,4.0297,4.0263,3.7877,,4.0209,4.0147,4.0205,167.651,175.7573,180.2304,164.922,186.8829,181.7520,180.9912,0.0402,,0.0812,0.1236, ,, , ,25.6872,,25.6831,,0.7383,83.1471,,,,3.6947E+00,,1.0000E-12,,10.9962,11.0032,0.1733,230.710,61.750,60.753,,,,,,,,,,,,
CalCOFI,2101RL,038,,2101_038u,24-Jan-2021 02:54:23,23-Jan-2021 18:54:23,33.31946,-119.66270,086.7 050.0,086.7,050.0,54.000,54.392,,11.0071,,11.0193,,11.0132,33.6010,,33.6068,33.5974,,33.5994,33.6031,3.8623,,4.0422,4.0387,3.7909,,4.0243,4.0181,4.0284,168.170,176.3006,180.3282,165.064,187.4601,181.7756,181.0519,0.0414,,0.0910,0.1321, ,, , ,25.6860,,25.6811,,0.7399,83.1131,,,,3.6947E+00,,1.0000E-12,,11.0006,11.0127,0.1733,230.796,61.947,60.817,,,,,,,,,,,,
CalCOFI,2101RL,038,,2101_038u,24-Jan-2021 02:54:25,23-Jan-2021 18:54:25,33.31946,-119.66270,086.7 050.0,086.7,050.0,53.000,53.385,,11.0346,,11.0110,,11.0228,33.5994,,33.6052,33.5984,,33.6004,33.6028,3.8620,,4.0419,4.0384,3.8019,,4.0360,4.0298,4.0341,168.159,176.2890,180.3262,165.539,187.4478,181.8546,181.0904,0.0435,,0.1082,0.1470, ,, , ,25.6799,,25.6833,,0.7422,83.0649,,,,3.6947E+00,,1.0000E-12,,11.0282,11.0045,0.1733,231.359,61.978,60.982,,,,,,,,,,,,
CalCOFI,2101RL,038,,2101_038u,24-Jan-2021 02:54:27,23-Jan-2021 18:54:27,33.31944,-119.66272,086.7 050.0,086.7,050.0,52.000,52.377,,11.0619,,11.0461,,11.0540,33.5989,,33.6047,33.5970,,33.5990,33.6019,3.8999,,4.0815,4.0781,3.8254,,4.0610,4.0547,4.0664,169.809,178.0163,180.6372,166.564,189.2827,182.0250,181.3311,0.0433,,0.1066,0.1455, ,, , ,25.6746,,25.6759,,0.7464,82.9770,,,,3.6947E+00,,1.0000E-12,,11.0556,11.0398,0.1733,231.844,62.622,61.405,,,,,,,,,,,,
CalCOFI,2101RL,038,,2101_038u,24-Jan-2021 02:54:32,23-Jan-2021 18:54:32,33.31943,-119.66272,086.7 050.0,086.7,050.0,51.000,51.370,,11.2419,,11.2208,,11.2314,33.5893,,33.5951,33.5894,,33.5914,33.5933,3.9505,,4.1345,4.1311,3.8974,,4.1374,4.1311,4.1311,172.018,180.3286,181.0536,169.707,191.7391,182.5474,181.8005,0.0472,,0.1386,0.1731, ,, , ,25.6348,,25.6386,,0.7476,82.9522,,,,3.5552E+00,,1.0000E-12,,11.2356,11.2145,0.1736,235.621,63.674,62.790,51,,33.3733,4.131,180.09,0.173,0.175,,,,,
CalCOFI,2101RL,038,,2101_038u,24-Jan-2021 02:55:40,23-Jan-2021 18:55:40,33.31920,-119.66277,086.7 050.0,086.7,050.0,50.000,50.363,,11.2486,,11.2549,,11.2518,33.5823,,33.5881,33.5788,,33.5808,33.5845,3.9543,,4.1385,4.1351,3.9039,,4.1443,4.1380,4.1366,172.184,180.5024,181.0848,169.994,191.9237,182.5951,181.8400,0.0470,,0.1369,0.1717, ,, , ,25.6280,,25.6242,,0.7450,83.0066,,,,3.7269E+00,,1.0000E-12,,11.2424,11.2487,0.1893,236.237,63.742,62.937,,,,,,,,,,,,
CalCOFI,2101RL,038,,2101_038u,24-Jan-2021 02:56:39,23-Jan-2021 18:56:39,33.31896,-119.66282,086.7 050.0,086.7,050.0,49.000,49.355,,11.2412,,11.2394,,11.2403,33.5836,,33.5894,33.5810,,33.5830,33.5862,4.0235,,4.2109,4.2075,3.9414,,4.1842,4.1777,4.1926,175.197,183.6564,181.6528,171.625,195.2742,182.8662,182.2595,0.0457,,0.1263,0.1625, ,, , ,25.6304,,25.6286,,0.7455,82.9957,,,,3.6947E+00,,1.0000E-12,,11.2352,11.2334,0.2033,235.990,64.848,63.522,,,,,,,,,,,,
CalCOFI,2101RL,038,,2101_038u,24-Jan-2021 02:56:42,23-Jan-2021 18:56:42,33.31892,-119.66284,086.7 050.0,086.7,050.0,48.000,48.348,,11.2748,,11.2630,,11.2689,33.5807,,33.5865,33.5790,,33.5810,33.5838,4.1050,,4.2962,4.2929,3.9788,,4.2239,4.2174,4.2552,178.751,187.3767,182.3227,173.253,199.2263,183.1369,182.7298,0.0479,,0.1443,0.1781, ,, , ,25.6220,,25.6228,,0.7460,82.9860,,,,3.6947E+00,,1.0000E-12,,11.2688,11.2571,0.2037,236.766,66.209,64.155,,,,,,,,,,,,
CalCOFI,2101RL,038,,2101_038u,24-Jan-2021 02:56:43,23-Jan-2021 18:56:43,33.31892,-119.66284,086.7 050.0,086.7,050.0,47.000,47.340,,11.3005,,11.3105,,11.3055,33.5794,,33.5852,33.5763,,33.5783,33.5818,4.1733,,4.3677,4.3644,4.0324,,4.2808,4.2743,4.3194,181.725,190.4899,182.8833,175.591,202.5335,183.5255,183.2044,0.0496,,0.1582,0.1901, ,, , ,25.6163,,25.6121,,0.7465,82.9754,,,,3.6947E+00,,1.0000E-12,,11.2947,11.3047,0.2037,237.282,67.346,65.085,,,,,,,,,,,,
CalCOFI,2101RL,038,,2101_038u,24-Jan-2021 02:56:44,23-Jan-2021 18:56:44,33.31891,-119.66285,086.7 050.0,086.7,050.0,46.000,46.333,,11.4787,,11.3766,,11.4277,33.5772,,33.5830,33.5774,,33.5794,33.5812,4.2014,,4.3971,4.3938,4.0830,,4.3346,4.3279,4.3609,182.953,191.7754,183.1147,177.794,203.8990,183.8917,183.5032,0.0499,,0.1607,0.1922, ,, , ,25.5820,,25.6009,,0.7494,82.9162,,,,3.6947E+00,,1.0000E-12,,11.4730,11.3709,0.2037,240.533,68.055,65.994,,,,,,,,,,,,
CalCOFI,2101RL,038,,2101_038u,24-Jan-2021 02:56:45,23-Jan-2021 18:56:45,33.31890,-119.66286,086.7 050.0,086.7,050.0,45.000,45.326,,11.6019,,11.5561,,11.5790,33.5719,,33.5777,33.5706,,33.5726,33.5752,4.2961,,4.4962,4.4930,4.1524,,4.4083,4.4016,4.4473,187.084,196.0997,183.8934,180.823,208.4927,184.3952,184.1443,0.0503,,0.1640,0.1950, ,, , ,25.5553,,25.5627,,0.7520,82.8618,,,,3.6947E+00,,1.0000E-12,,11.5962,11.5505,0.2037,243.059,69.770,67.369,,,,,,,,,,,,
CalCOFI,2101RL,038,,2101_038u,24-Jan-2021 02:56:47,23-Jan-2021 18:56:47,33.31890,-119.66286,086.7 050.0,086.7,050.0,44.000,44.318,,11.6672,,11.6236,,11.6454,33.5701,,33.5759,33.5699,,33.5719,33.5739,4.6152,,4.8302,4.8272,4.3512,,4.6194,4.6124,4.7198,200.980,210.6461,186.5127,189.483,223.9453,185.8347,186.1737,0.0547,,0.2000,0.2261, ,, , ,25.5418,,25.5497,,0.7577,82.7439,,,,3.6947E+00,,1.0000E-12,,11.6616,11.6181,0.2037,244.324,75.053,70.696,,,,,,,,,,,,
CalCOFI,2101RL,038,,2101_038u,24-Jan-2021 02:56:48,23-Jan-2021 18:56:48,33.31891,-119.66286,086.7 050.0,086.7,050.0,43.000,43.311,,11.7709,,11.7612,,11.7661,33.5596,,33.5654,33.5583,,33.5603,33.5629,4.8939,,5.1219,5.1190,4.5939,,4.8772,4.8699,4.9945,213.123,223.3574,188.8016,200.057,237.4485,187.5923,188.1970,0.0575,,0.2230,0.2459, ,, , ,25.5144,,25.5152,,0.7641,82.6120,,,,3.6947E+00,,1.0000E-12,,11.7655,11.7558,0.2037,246.915,79.755,74.849,,,,,,,,,,,,
CalCOFI,2101RL,038,,2101_038u,24-Jan-2021 02:56:49,23-Jan-2021 18:56:49,33.31892,-119.66286,086.7 050.0,086.7,050.0,42.000,42.304,,11.9580,,11.9454,,11.9517,33.5286,,33.5344,33.5281,,33.5301,33.5323,5.0199,,5.2537,5.2510,4.7551,,5.0484,5.0409,5.1460,218.623,229.1148,189.8383,207.091,243.5646,188.7615,189.2999,0.0567,,0.2164,0.2403, ,, , ,25.4553,,25.4572,,0.7617,82.6617,,,,3.6947E+00,,1.0000E-12,,11.9526,11.9400,0.2037,252.518,82.115,77.763,,,,,,,,,,,,
CalCOFI,2101RL,038,,2101_038u,24-Jan-2021 02:56:50,23-Jan-2021 18:56:50,33.31892,-119.66286,086.7 050.0,086.7,050.0,41.000,41.296,,12.2574,,12.1635,,12.2105,33.4932,,33.4990,33.5012,,33.5032,33.5011,5.0777,,5.3142,5.3115,4.8735,,5.1741,5.1665,5.2390,221.161,231.7715,190.3167,212.258,246.3869,189.6204,189.9686,0.0609,,0.2508,0.2700, ,, , ,25.3711,,25.3952,,0.7618,82.6579,,,,3.6947E+00,,1.0000E-12,,12.2520,12.1582,0.2037,260.517,83.566,80.050,,,,,,,,,,,,
CalCOFI,2101RL,038,,2101_038u,24-Jan-2021 02:56:51,23-Jan-2021 18:56:51,33.31891,-119.66287,086.7 050.0,086.7,050.0,40.000,40.289,,12.4760,,12.4211,,12.4486,33.4812,,33.4870,33.4830,,33.4850,33.4860,5.1005,,5.3381,5.3354,4.9463,,5.2515,5.2437,5.2896,222.161,232.8183,190.5052,215.446,247.4989,190.1503,190.3278,0.0682,,0.3106,0.3216, ,, , ,25.3198,,25.3318,,0.7630,82.6343,,,,3.6947E+00,,1.0000E-12,,12.4707,12.4158,0.2037,265.389,84.316,81.677,,,,,,,,,,,,
CalCOFI,2101RL,038,,2101_038u,24-Jan-2021 02:56:52,23-Jan-2021 18:56:52,33.31890,-119.66288,086.7 050.0,086.7,050.0,39.000,39.282,,12.6992,,12.6817,,12.6905,33.4699,,33.4757,33.4675,,33.4695,33.4726,5.1020,,5.3397,5.3370,4.9864,,5.2941,5.2863,5.3117,222.242,232.9031,190.5204,217.202,247.5890,190.4422,190.4813,0.0673,,0.3033,0.3152, ,, , ,25.2678,,25.2693,,0.7612,82.6707,,,,3.6947E+00,,1.0000E-12,,12.6940,12.6765,0.2037,270.327,84.729,82.776,,,,,,,,,,,,
CalCOFI,2101RL,038,,2101_038u,24-Jan-2021 02:56:54,23-Jan-2021 18:56:54,33.31891,-119.66289,086.7 050.0,086.7,050.0,38.000,38.274,,12.7602,,12.7475,,12.7539,33.4640,,33.4698,33.4656,,33.4676,33.4687,5.1550,,5.3951,5.3925,5.0326,,5.3431,5.3353,5.3639,224.550,235.3191,190.9555,219.221,250.1555,190.7778,190.8667,0.0628,,0.2664,0.2834, ,, , ,25.2513,,25.2550,,0.7669,82.5533,,,,3.6947E+00,,1.0000E-12,,12.7551,12.7424,0.2037,271.872,85.713,83.657,,,,,,,,,,,,
CalCOFI,2101RL,038,,2101_038u,24-Jan-2021 02:56:55,23-Jan-2021 18:56:55,33.31892,-119.66290,086.7 050.0,086.7,050.0,37.000,37.267,,12.8345,,12.8164,,12.8255,33.4580,,33.4638,33.4557,,33.4577,33.4608,5.1992,,5.4414,5.4387,5.0633,,5.3757,5.3678,5.4033,226.480,237.3395,191.3193,220.562,252.3017,191.0007,191.1600,0.0677,,0.3065,0.3180, ,, , ,25.2320,,25.2338,,0.7727,82.4334,,,,3.6947E+00,,1.0000E-12,,12.8296,12.8114,0.2037,273.683,86.578,84.283,,,,,,,,,,,,
CalCOFI,2101RL,038,,2101_038u,24-Jan-2021 02:56:56,23-Jan-2021 18:56:56,33.31892,-119.66290,086.7 050.0,086.7,050.0,36.000,36.260,,12.8753,,12.8678,,12.8716,33.4545,,33.4603,33.4524,,33.4544,33.4574,5.2822,,5.5283,5.5257,5.1174,,5.4332,5.4252,5.4755,230.100,241.1289,192.0016,222.921,256.3272,191.3929,191.6973,0.0712,,0.3352,0.3428, ,, , ,25.2213,,25.2211,,0.7755,82.3766,,,,3.6947E+00,,1.0000E-12,,12.8704,12.8630,0.2037,274.676,88.033,85.272,,,,,,,,,,,,
CalCOFI,2101RL,038,,2101_038u,24-Jan-2021 02:56:57,23-Jan-2021 18:56:57,33.31891,-119.66289,086.7 050.0,086.7,050.0,35.000,35.253,,12.9081,,12.8956,,12.9019,33.4499,,33.4557,33.4481,,33.4501,33.4529,5.4022,,5.6538,5.6513,5.2231,,5.5455,5.5374,5.5944,235.328,246.6016,192.9871,227.527,262.1408,192.1585,192.5728,0.0825,,0.4278,0.4226, ,, , ,25.2112,,25.2123,,0.7778,82.3288,,,,3.6947E+00,,1.0000E-12,,12.9033,12.8909,0.2037,275.614,90.091,87.081,,,,,,,,,,,,
CalCOFI,2101RL,038,,2101_038u,24-Jan-2021 02:56:58,23-Jan-2021 18:56:58,33.31890,-119.66288,086.7 050.0,086.7,050.0,34.000,34.245,,12.9736,,12.9526,,12.9631,33.4447,,33.4505,33.4431,,33.4451,33.4478,5.4662,,5.7208,5.7183,5.3192,,5.6475,5.6393,5.6788,238.120,249.5242,193.5133,231.717,265.2456,192.8550,193.1842,0.0873,,0.4671,0.4566, ,, , ,25.1943,,25.1971,,0.7766,82.3523,,,,3.6947E+00,,1.0000E-12,,12.9690,12.9480,0.2037,277.201,91.279,88.785,,,,,,,,,,,,
CalCOFI,2101RL,038,,2101_038u,24-Jan-2021 02:56:59,23-Jan-2021 18:56:59,33.31890,-119.66288,086.7 050.0,086.7,050.0,33.000,33.238,,13.1080,,13.0995,,13.1038,33.4363,,33.4421,33.4340,,33.4360,33.4391,5.4782,,5.7334,5.7309,5.3637,,5.6948,5.6865,5.7087,238.650,250.0790,193.6132,233.664,265.8349,193.1786,193.3959,0.0860,,0.4565,0.4474, ,, , ,25.1611,,25.1610,,0.7802,82.2802,,,,3.6947E+00,,1.0000E-12,,13.1035,13.0950,0.2037,280.339,91.728,89.794,,,,,,,,,,,,
CalCOFI,2101RL,038,,2101_038u,24-Jan-2021 02:57:00,23-Jan-2021 18:57:00,33.31890,-119.66288,086.7 050.0,086.7,050.0,32.000,32.231,,13.2246,,13.2346,,13.2296,33.4288,,33.4346,33.4247,,33.4267,33.4307,5.4968,,5.7529,5.7504,5.3769,,5.7088,5.7005,5.7255,239.469,250.9363,193.7676,234.246,266.7457,193.2754,193.5215,0.1014,,0.5827,0.5562, ,, , ,25.1320,,25.1268,,0.7824,82.2346,,,,3.6947E+00,,1.0000E-12,,13.2202,13.2302,0.2037,283.089,92.257,90.260,,,,,,,,,,,,
CalCOFI,2101RL,038,,2101_038u,24-Jan-2021 02:57:01,23-Jan-2021 18:57:01,33.31890,-119.66288,086.7 050.0,086.7,050.0,31.000,31.223,,13.3036,,13.3116,,13.3076,33.4227,,33.4285,33.4205,,33.4225,33.4255,5.5352,,5.7930,5.7906,5.4010,,5.7344,5.7261,5.7584,241.146,252.6918,194.0837,235.302,268.6105,193.4509,193.7673,0.1135,,0.6818,0.6417, ,, , ,25.1114,,25.1081,,0.7874,82.1315,,,,3.6947E+00,,1.0000E-12,,13.2993,13.3073,0.2037,285.026,93.048,90.807,,,,,,,,,,,,
CalCOFI,2101RL,038,,2101_038u,24-Jan-2021 02:57:03,23-Jan-2021 18:57:03,33.31890,-119.66288,086.7 050.0,086.7,050.0,30.000,30.216,,13.3479,,13.3528,,13.3504,33.4203,,33.4261,33.4189,,33.4209,33.4235,5.5308,,5.7884,5.7860,5.4258,,5.7607,5.7524,5.7692,240.958,252.4950,194.0483,236.383,268.4015,193.6306,193.8395,0.1077,,0.6343,0.6008, ,, , ,25.1007,,25.0985,,0.7911,82.0550,,,,3.6947E+00,,1.0000E-12,,13.3438,13.3487,0.2037,286.021,93.058,91.299,,,,,,,,,,,,
CalCOFI,2101RL,038,,2101_038u,24-Jan-2021 02:57:06,23-Jan-2021 18:57:06,33.31890,-119.66288,086.7 050.0,086.7,050.0,29.000,29.209,,13.4376,,13.4355,,13.4366,33.4145,,33.4203,33.4126,,33.4146,33.4175,5.5495,,5.8080,5.8056,5.4424,,5.7784,5.7700,5.7878,241.777,253.3524,194.2027,237.111,269.3122,193.7516,193.9772,0.1102,,0.6548,0.6184, ,, , ,25.0780,,25.0770,,0.8218,81.4275,,,,3.6947E+00,,1.0000E-12,,13.4336,13.4315,0.2037,288.154,93.541,91.730,,,,,,,,,,,,
CalCOFI,2101RL,038,,2101_038u,24-Jan-2021 02:57:07,23-Jan-2021 18:57:07,33.31889,-119.66288,086.7 050.0,086.7,050.0,28.000,28.202,,13.4192,,13.4081,,13.4137,33.4143,,33.4201,33.4135,,33.4155,33.4178,5.5829,,5.8430,5.8406,5.4649,,5.8023,5.7939,5.8173,243.231,254.8744,194.4767,238.089,270.9291,193.9142,194.1955,0.1185,,0.7228,0.6771, ,, , ,25.0816,,25.0831,,0.8176,81.5134,,,,3.6947E+00,,1.0000E-12,,13.4153,13.4042,0.2037,287.786,94.068,92.058,,,,,,,,,,,,
CalCOFI,2101RL,038,,2101_038u,24-Jan-2021 02:57:08,23-Jan-2021 18:57:08,33.31884,-119.66290,086.7 050.0,086.7,050.0,27.000,27.194,,13.4455,,13.4264,,13.4360,33.4106,,33.4164,33.4103,,33.4123,33.4144,5.5902,,5.8506,5.8482,5.4816,,5.8200,5.8116,5.8299,243.551,255.2094,194.5370,238.819,271.2849,194.0355,194.2863,0.1160,,0.7023,0.6594, ,, , ,25.0733,,25.0769,,0.8322,81.2170,,,,3.6947E+00,,1.0000E-12,,13.4418,13.4227,0.2037,288.541,94.240,92.373,,,,,,,,,,,,
CalCOFI,2101RL,038,,2101_038u,24-Jan-2021 02:57:09,23-Jan-2021 18:57:09,33.31884,-119.66290,086.7 050.0,086.7,050.0,26.000,26.187,,13.4628,,13.4625,,13.4627,33.4071,,33.4129,33.4048,,33.4068,33.4099,5.5999,,5.8608,5.8584,5.5025,,5.8422,5.8337,5.8461,243.974,255.6522,194.6168,239.731,271.7553,194.1871,194.4020,0.1337,,0.8474,0.7845, ,, , ,25.0671,,25.0654,,0.8371,81.1178,,,,3.6947E+00,,1.0000E-12,,13.4592,13.4589,0.2037,289.107,94.434,92.790,,,,,,,,,,,,
CalCOFI,2101RL,038,,2101_038u,24-Jan-2021 02:57:10,23-Jan-2021 18:57:10,33.31884,-119.66290,086.7 050.0,086.7,050.0,25.000,25.180,,13.4744,,13.4758,,13.4751,33.4032,,33.4090,33.4008,,33.4028,33.4059,5.6399,,5.9026,5.9002,5.5302,,5.8716,5.8631,5.8817,245.721,257.4809,194.9461,240.940,273.6980,194.3881,194.6671,0.1497,,0.9785,0.8976, ,, , ,25.0618,,25.0596,,0.8327,81.2056,,,,3.6947E+00,,1.0000E-12,,13.4710,13.4723,0.2037,289.590,95.130,93.280,,,,,,,,,,,,
CalCOFI,2101RL,038,,2101_038u,24-Jan-2021 02:57:12,23-Jan-2021 18:57:12,33.31882,-119.66290,086.7 050.0,086.7,050.0,24.000,24.172,,13.4916,,13.4921,,13.4919,33.3970,,33.4028,33.3944,,33.3964,33.3996,5.6562,,5.9197,5.9173,5.5516,,5.8944,5.8858,5.9016,246.430,258.2231,195.0797,241.873,274.4864,194.5432,194.8115,0.1548,,1.0202,0.9337, ,, , ,25.0534,,25.0513,,0.8448,80.9620,,,,3.6947E+00,,1.0000E-12,,13.4882,13.4888,0.2037,290.357,95.433,93.668,,,,,,,,,,,,
CalCOFI,2101RL,038,,2101_038u,24-Jan-2021 02:57:15,23-Jan-2021 18:57:15,33.31880,-119.66291,086.7 050.0,086.7,050.0,23.000,23.165,,13.5134,,13.5144,,13.5139,33.3891,,33.3949,33.3864,,33.3884,33.3917,5.6537,,5.9171,5.9147,5.5754,,5.9196,5.9111,5.9129,246.326,258.1143,195.0601,242.916,274.3708,194.7165,194.8883,0.1626,,1.0842,0.9888, ,, , ,25.0429,,25.0406,,0.8655,80.5436,,,,3.6947E+00,,1.0000E-12,,13.5102,13.5112,0.2043,291.334,95.430,94.109,,,,,,,,,,,,
CalCOFI,2101RL,038,,2101_038u,24-Jan-2021 02:57:24,23-Jan-2021 18:57:24,33.31875,-119.66293,086.7 050.0,086.7,050.0,22.000,22.158,,13.5217,,13.5212,,13.5215,33.3857,,33.3915,33.3833,,33.3853,33.3884,5.6630,,5.9268,5.9244,5.5897,,5.9348,5.9262,5.9253,246.732,258.5393,195.1366,243.538,274.8223,194.8199,194.9783,0.1792,,1.2202,1.1061, ,, , ,25.0385,,25.0367,,0.8776,80.3007,,,,3.6436E+00,,1.0000E-12,,13.5187,13.5181,0.2063,291.718,95.601,94.361,,,,,,,,,,,,
CalCOFI,2101RL,038,,2101_038u,24-Jan-2021 02:57:36,23-Jan-2021 18:57:36,33.31868,-119.66295,086.7 050.0,086.7,050.0,21.000,21.151,,13.5440,,13.5455,,13.5448,33.3817,,33.3875,33.3788,,33.3808,33.3842,5.6935,,5.9587,5.9564,5.6183,,5.9652,5.9566,5.9565,248.061,259.9305,195.3871,244.785,276.3001,195.0272,195.2072,0.1960,,1.3578,1.2249, ,, , ,25.0309,,25.0283,,0.8930,79.9926,,,,3.6900E+00,,1.0000E-12,,13.5411,13.5426,0.2085,292.418,96.157,94.888,,,,,,,,,,,,
CalCOFI,2101RL,038,,2101_038u,24-Jan-2021 02:57:43,23-Jan-2021 18:57:43,33.31865,-119.66296,086.7 050.0,086.7,050.0,20.000,20.144,,13.5412,,13.5407,,13.5410,33.3820,,33.3878,33.3793,,33.3813,33.3846,5.6877,,5.9526,5.9503,5.6292,,5.9768,5.9681,5.9592,247.808,259.6656,195.3394,245.263,276.0188,195.1066,195.2230,0.2209,,1.5619,1.4009, ,, , ,25.0316,,25.0297,,0.8994,79.8642,,,,3.6947E+00,,1.0000E-12,,13.5385,13.5379,0.2091,292.321,96.054,95.064,,,,,,,,,,,,
CalCOFI,2101RL,038,,2101_038u,24-Jan-2021 02:58:06,23-Jan-2021 18:58:06,33.31854,-119.66300,086.7 050.0,086.7,050.0,19.000,19.136,,13.5563,,13.5572,,13.5568,33.3801,,33.3859,33.3771,,33.3791,33.3825,5.7177,,5.9840,5.9817,5.6314,,5.9791,5.9705,5.9761,249.119,261.0380,195.5866,245.359,277.4766,195.1226,195.3546,0.2249,,1.5947,1.4292, ,, , ,25.0271,,25.0246,,0.9074,79.7031,,,,3.6947E+00,,1.0000E-12,,13.5536,13.5545,0.2199,292.728,96.590,95.132,19,,33.3720,5.978,260.67,1.414,0.297,,,,,
CalCOFI,2101RL,038,,2101_038u,24-Jan-2021 02:58:40,23-Jan-2021 18:58:40,33.31839,-119.66302,086.7 050.0,086.7,050.0,18.000,18.129,,13.5500,,13.5506,,13.5503,33.3816,,33.3874,33.3788,,33.3808,33.3841,5.7235,,5.9901,5.9878,5.6243,,5.9716,5.9629,5.9754,249.368,261.2986,195.6335,245.047,277.7535,195.0707,195.3521,0.1860,,1.2759,1.1542, ,, , ,25.0295,,25.0272,,0.9087,79.6781,,,,3.6947E+00,,1.0000E-12,,13.5475,13.5481,0.2322,292.466,96.675,94.999,,,,,,,,,,,,
CalCOFI,2101RL,038,,2101_038u,24-Jan-2021 02:58:44,23-Jan-2021 18:58:44,33.31838,-119.66302,086.7 050.0,086.7,050.0,17.000,17.122,,13.5542,,13.5540,,13.5541,33.3810,,33.3868,33.3783,,33.3803,33.3836,5.7150,,5.9812,5.9789,5.6369,,5.9850,5.9763,5.9776,249.000,260.9134,195.5641,245.596,277.3443,195.1620,195.3631,0.2076,,1.4529,1.3069, ,, , ,25.0281,,25.0261,,0.9090,79.6717,,,,3.6947E+00,,1.0000E-12,,13.5519,13.5516,0.2328,292.570,96.540,95.219,,,,,,,,,,,,
CalCOFI,2101RL,038,,2101_038u,24-Jan-2021 02:58:48,23-Jan-2021 18:58:48,33.31836,-119.66302,086.7 050.0,086.7,050.0,16.000,16.115,,13.5577,,13.5576,,13.5577,33.3803,,33.3861,33.3775,,33.3795,33.3828,5.7111,,5.9771,5.9748,5.6338,,5.9817,5.9730,5.9739,248.830,260.7354,195.5321,245.465,277.1553,195.1402,195.3362,0.1978,,1.3726,1.2376, ,, , ,25.0269,,25.0247,,0.9097,79.6574,,,,3.6947E+00,,1.0000E-12,,13.5554,13.5553,0.2328,292.661,96.481,95.174,,,,,,,,,,,,
CalCOFI,2101RL,038,,2101_038u,24-Jan-2021 02:58:50,23-Jan-2021 18:58:50,33.31836,-119.66302,086.7 050.0,086.7,050.0,15.000,15.107,,13.5593,,13.5582,,13.5588,33.3797,,33.3855,33.3774,,33.3794,33.3825,5.7254,,5.9921,5.9898,5.6663,,6.0162,6.0075,5.9987,249.453,261.3876,195.6495,246.879,277.8480,195.3753,195.5124,0.2030,,1.4152,1.2744, ,, , ,25.0261,,25.0245,,0.9126,79.6017,,,,3.6947E+00,,1.0000E-12,,13.5572,13.5561,0.2328,292.709,96.725,95.724,,,,,,,,,,,,
CalCOFI,2101RL,038,,2101_038u,24-Jan-2021 02:58:52,23-Jan-2021 18:58:52,33.31836,-119.66302,086.7 050.0,086.7,050.0,14.000,14.100,,13.5614,,13.5614,,13.5614,33.3795,,33.3853,33.3767,,33.3787,33.3820,5.7301,,5.9970,5.9947,5.6716,,6.0218,6.0131,6.0039,249.660,261.6043,195.6885,247.110,278.0782,195.4137,195.5511,0.2021,,1.4078,1.2680, ,, , ,25.0254,,25.0233,,0.9189,79.4764,,,,3.6947E+00,,1.0000E-12,,13.5594,13.5595,0.2328,292.742,96.809,95.819,,,,,,,,,,,,
CalCOFI,2101RL,038,,2101_038u,24-Jan-2021 02:58:54,23-Jan-2021 18:58:54,33.31836,-119.66302,086.7 050.0,086.7,050.0,13.000,13.093,,13.5649,,13.5664,,13.5657,33.3788,,33.3846,33.3758,,33.3778,33.3812,5.7320,,5.9990,5.9967,5.6613,,6.0109,6.0022,5.9995,249.743,261.6912,195.7042,246.662,278.1705,195.3392,195.5217,0.2286,,1.6250,1.4553, ,, , ,25.0242,,25.0215,,0.9184,79.4851,,,,3.6947E+00,,1.0000E-12,,13.5631,13.5646,0.2328,292.833,96.848,95.654,,,,,,,,,,,,